Private Wetterstation Sandau
Wetterdaten: Dienstag, 26.02.2013
Datum Zeit Temp. A. Feuchte A. Luftdruck Regen Wind Richtung Richtung Taupunkt Windchill
26.02.2013 00:01 1,4 C 92 % 1029,5 hPa 0,0 l/m 2,2 km/h (1 Bft) NO 45 0,2 C 1,4 C
26.02.2013 00:06 1,4 C 92 % 1029,5 hPa 0,0 l/m 7,9 km/h (2 Bft) O-NO 67 0,2 C -1,1 C
26.02.2013 00:11 1,4 C 92 % 1029,5 hPa 0,0 l/m 5,8 km/h (2 Bft) O-NO 67 0,2 C -0,3 C
26.02.2013 00:16 1,3 C 92 % 1029,6 hPa 0,0 l/m 6,8 km/h (2 Bft) O 90 0,1 C -0,8 C
26.02.2013 00:21 1,3 C 92 % 1029,7 hPa 0,0 l/m 4,0 km/h (1 Bft) O 90 0,1 C 1,3 C
26.02.2013 00:26 1,3 C 92 % 1029,8 hPa 0,0 l/m 6,5 km/h (2 Bft) NO 45 0,1 C -0,7 C
26.02.2013 00:31 1,3 C 92 % 1029,7 hPa 0,0 l/m 2,5 km/h (1 Bft) O-NO 67 0,1 C 1,3 C
26.02.2013 00:36 1,3 C 92 % 1029,7 hPa 0,0 l/m 2,5 km/h (1 Bft) O-NO 67 0,1 C 1,3 C
26.02.2013 00:41 1,3 C 92 % 1029,8 hPa 0,0 l/m 2,2 km/h (1 Bft) O-SO 112 0,1 C 1,3 C
26.02.2013 00:46 1,3 C 92 % 1029,8 hPa 0,0 l/m 4,3 km/h (1 Bft) NO 45 0,1 C 1,3 C
26.02.2013 00:51 1,3 C 92 % 1029,9 hPa 0,0 l/m 7,9 km/h (2 Bft) O-NO 67 0,1 C -1,2 C
26.02.2013 00:56 1,3 C 92 % 1030,1 hPa 0,0 l/m 3,6 km/h (1 Bft) O-NO 67 0,1 C 1,3 C
26.02.2013 01:01 1,3 C 92 % 1029,9 hPa 0,0 l/m 2,9 km/h (1 Bft) NO 45 0,1 C 1,3 C
26.02.2013 01:06 1,3 C 92 % 1029,9 hPa 0,0 l/m 3,6 km/h (1 Bft) O-NO 67 0,1 C 1,3 C
26.02.2013 01:11 1,3 C 92 % 1030,0 hPa 0,0 l/m 2,5 km/h (1 Bft) N-NO 22 0,1 C 1,3 C
26.02.2013 01:16 1,3 C 92 % 1030,1 hPa 0,0 l/m 8,6 km/h (2 Bft) NO 45 0,1 C -1,4 C
26.02.2013 01:21 1,3 C 92 % 1030,0 hPa 0,0 l/m 2,2 km/h (1 Bft) O-NO 67 0,1 C 1,3 C
26.02.2013 01:26 1,3 C 93 % 1030,1 hPa 0,0 l/m 10,1 km/h (2 Bft) O-NO 67 0,3 C -1,8 C
26.02.2013 01:31 1,3 C 93 % 1030,1 hPa 0,0 l/m 4,3 km/h (1 Bft) N-NO 22 0,3 C 1,3 C
26.02.2013 01:36 1,3 C 93 % 1030,0 hPa 0,0 l/m 6,1 km/h (2 Bft) NO 45 0,3 C -0,6 C
26.02.2013 01:41 1,3 C 93 % 1029,9 hPa 0,0 l/m 4,7 km/h (1 Bft) NO 45 0,3 C 0,0 C
26.02.2013 01:46 1,3 C 93 % 1030,0 hPa 0,0 l/m 6,5 km/h (2 Bft) NO 45 0,3 C -0,7 C
26.02.2013 01:51 1,3 C 93 % 1030,1 hPa 0,0 l/m 7,9 km/h (2 Bft) O-NO 67 0,3 C -1,2 C
26.02.2013 01:56 1,3 C 93 % 1030,2 hPa 0,0 l/m 1,1 km/h (1 Bft) NO 45 0,3 C 1,3 C
26.02.2013 02:01 1,3 C 93 % 1030,1 hPa 0,0 l/m 3,6 km/h (1 Bft) O-NO 67 0,3 C 1,3 C
26.02.2013 02:06 1,3 C 93 % 1030,1 hPa 0,0 l/m 4,0 km/h (1 Bft) NO 45 0,3 C 1,3 C
26.02.2013 02:11 1,3 C 93 % 1030,2 hPa 0,0 l/m 2,5 km/h (1 Bft) O-NO 67 0,3 C 1,3 C
26.02.2013 02:16 1,3 C 92 % 1030,2 hPa 0,0 l/m 2,2 km/h (1 Bft) NO 45 0,1 C 1,3 C
26.02.2013 02:21 1,3 C 92 % 1030,2 hPa 0,0 l/m 2,9 km/h (1 Bft) NO 45 0,1 C 1,3 C
26.02.2013 02:26 1,3 C 92 % 1030,2 hPa 0,0 l/m 3,2 km/h (1 Bft) NO 45 0,1 C 1,3 C
26.02.2013 02:31 1,3 C 92 % 1030,3 hPa 0,0 l/m 3,2 km/h (1 Bft) O-NO 67 0,1 C 1,3 C
26.02.2013 02:36 1,3 C 92 % 1030,4 hPa 0,0 l/m 4,0 km/h (1 Bft) O-NO 67 0,1 C 1,3 C
26.02.2013 02:41 1,3 C 92 % 1030,4 hPa 0,0 l/m 3,6 km/h (1 Bft) NO 45 0,1 C 1,3 C
26.02.2013 02:46 1,3 C 92 % 1030,5 hPa 0,0 l/m 3,2 km/h (1 Bft) NO 45 0,1 C 1,3 C
26.02.2013 02:51 1,3 C 92 % 1030,5 hPa 0,0 l/m 7,9 km/h (2 Bft) NO 45 0,1 C -1,2 C
26.02.2013 02:56 1,3 C 92 % 1030,6 hPa 0,0 l/m 1,8 km/h (1 Bft) NO 45 0,1 C 1,3 C
26.02.2013 03:01 1,3 C 92 % 1030,7 hPa 0,0 l/m 3,6 km/h (1 Bft) O-NO 67 0,1 C 1,3 C
26.02.2013 03:06 1,3 C 92 % 1030,8 hPa 0,0 l/m 3,2 km/h (1 Bft) O-NO 67 0,1 C 1,3 C
26.02.2013 03:11 1,3 C 92 % 1030,5 hPa 0,0 l/m 4,7 km/h (1 Bft) NO 45 0,1 C 0,0 C
26.02.2013 03:16 1,3 C 92 % 1030,5 hPa 0,0 l/m 5,8 km/h (2 Bft) O-NO 67 0,1 C -0,5 C
26.02.2013 03:21 1,3 C 92 % 1030,7 hPa 0,0 l/m 4,0 km/h (1 Bft) NO 45 0,1 C 1,3 C
26.02.2013 03:26 1,3 C 92 % 1030,8 hPa 0,0 l/m 4,0 km/h (1 Bft) NO 45 0,1 C 1,3 C
26.02.2013 03:31 1,3 C 92 % 1030,7 hPa 0,0 l/m 5,8 km/h (2 Bft) O-NO 67 0,1 C -0,5 C
26.02.2013 03:36 1,3 C 92 % 1030,7 hPa 0,0 l/m 6,5 km/h (2 Bft) O-NO 67 0,1 C -0,7 C
26.02.2013 03:41 1,3 C 92 % 1030,8 hPa 0,0 l/m 7,2 km/h (2 Bft) O-NO 67 0,1 C -1,0 C
26.02.2013 03:46 1,3 C 92 % 1030,9 hPa 0,0 l/m 3,6 km/h (1 Bft) O-NO 67 0,1 C 1,3 C
26.02.2013 03:51 1,3 C 92 % 1031,0 hPa 0,0 l/m 6,1 km/h (2 Bft) O-NO 67 0,1 C -0,6 C
26.02.2013 03:56 1,3 C 92 % 1031,0 hPa 0,0 l/m 5,8 km/h (2 Bft) NO 45 0,1 C -0,5 C
26.02.2013 04:01 1,3 C 92 % 1031,1 hPa 0,0 l/m 2,5 km/h (1 Bft) N-NO 22 0,1 C 1,3 C
26.02.2013 04:06 1,3 C 92 % 1030,9 hPa 0,0 l/m 0,0 km/h (0 Bft) NO 45 0,1 C 1,3 C
26.02.2013 04:11 1,3 C 92 % 1030,9 hPa 0,0 l/m 2,9 km/h (1 Bft) NO 45 0,1 C 1,3 C
26.02.2013 04:16 1,3 C 92 % 1031,0 hPa 0,0 l/m 3,6 km/h (1 Bft) O-NO 67 0,1 C 1,3 C
26.02.2013 04:21 1,3 C 92 % 1030,9 hPa 0,0 l/m 2,5 km/h (1 Bft) NO 45 0,1 C 1,3 C
26.02.2013 04:26 1,3 C 92 % 1031,0 hPa 0,0 l/m 5,8 km/h (2 Bft) NO 45 0,1 C -0,5 C
26.02.2013 04:31 1,3 C 92 % 1031,1 hPa 0,0 l/m 3,6 km/h (1 Bft) NO 45 0,1 C 1,3 C
26.02.2013 04:36 1,3 C 92 % 1031,1 hPa 0,0 l/m 3,6 km/h (1 Bft) NO 45 0,1 C 1,3 C
26.02.2013 04:41 1,3 C 92 % 1031,1 hPa 0,0 l/m 1,4 km/h (1 Bft) N-NO 22 0,1 C 1,3 C
26.02.2013 04:46 1,3 C 92 % 1031,1 hPa 0,0 l/m 2,9 km/h (1 Bft) NO 45 0,1 C 1,3 C
26.02.2013 04:51 1,3 C 92 % 1031,2 hPa 0,0 l/m 3,6 km/h (1 Bft) NO 45 0,1 C 1,3 C
26.02.2013 04:56 1,3 C 92 % 1031,2 hPa 0,0 l/m 5,8 km/h (2 Bft) NO 45 0,1 C -0,5 C
26.02.2013 05:01 1,3 C 92 % 1031,4 hPa 0,0 l/m 4,0 km/h (1 Bft) NO 45 0,1 C 1,3 C
26.02.2013 05:06 1,3 C 92 % 1031,3 hPa 0,0 l/m 3,2 km/h (1 Bft) O-NO 67 0,1 C 1,3 C
26.02.2013 05:11 1,3 C 92 % 1031,3 hPa 0,0 l/m 4,3 km/h (1 Bft) NO 45 0,1 C 1,3 C
26.02.2013 05:16 1,3 C 92 % 1031,1 hPa 0,0 l/m 4,0 km/h (1 Bft) O 90 0,1 C 1,3 C
26.02.2013 05:21 1,3 C 92 % 1031,2 hPa 0,0 l/m 2,9 km/h (1 Bft) NO 45 0,1 C 1,3 C
26.02.2013 05:26 1,3 C 92 % 1031,1 hPa 0,0 l/m 5,8 km/h (2 Bft) O-NO 67 0,1 C -0,5 C
26.02.2013 05:31 1,3 C 92 % 1031,2 hPa 0,0 l/m 4,7 km/h (1 Bft) NO 45 0,1 C 0,0 C
26.02.2013 05:36 1,3 C 92 % 1031,2 hPa 0,0 l/m 2,5 km/h (1 Bft) O-NO 67 0,1 C 1,3 C
26.02.2013 05:41 1,3 C 92 % 1031,4 hPa 0,0 l/m 2,5 km/h (1 Bft) NO 45 0,1 C 1,3 C
26.02.2013 05:46 1,3 C 92 % 1031,4 hPa 0,0 l/m 1,1 km/h (1 Bft) NO 45 0,1 C 1,3 C
26.02.2013 05:51 1,3 C 92 % 1031,2 hPa 0,0 l/m 0,0 km/h (0 Bft) NO 45 0,1 C 1,3 C
26.02.2013 05:56 1,3 C 92 % 1031,1 hPa 0,0 l/m 1,8 km/h (1 Bft) NO 45 0,1 C 1,3 C
26.02.2013 06:01 1,3 C 92 % 1031,2 hPa 0,0 l/m 1,4 km/h (1 Bft) NO 45 0,1 C 1,3 C
26.02.2013 06:06 1,3 C 92 % 1031,3 hPa 0,0 l/m 1,4 km/h (1 Bft) NO 45 0,1 C 1,3 C
26.02.2013 06:11 1,3 C 92 % 1031,4 hPa 0,0 l/m 1,8 km/h (1 Bft) NO 45 0,1 C 1,3 C
26.02.2013 06:16 1,3 C 92 % 1031,5 hPa 0,0 l/m 3,6 km/h (1 Bft) N 360 0,1 C 1,3 C
26.02.2013 06:21 1,2 C 92 % 1031,5 hPa 0,0 l/m 4,0 km/h (1 Bft) O-NO 67 0,0 C 1,2 C
26.02.2013 06:26 1,3 C 92 % 1031,5 hPa 0,0 l/m 4,0 km/h (1 Bft) N 360 0,1 C 1,3 C
26.02.2013 06:31 1,2 C 92 % 1031,6 hPa 0,0 l/m 2,9 km/h (1 Bft) N-NO 22 0,0 C 1,2 C
26.02.2013 06:36 1,2 C 93 % 1031,5 hPa 0,0 l/m 0,0 km/h (0 Bft) N 360 0,2 C 1,2 C
26.02.2013 06:41 1,2 C 93 % 1031,5 hPa 0,0 l/m 2,2 km/h (1 Bft) N-NO 22 0,2 C 1,2 C
26.02.2013 06:46 1,2 C 93 % 1031,7 hPa 0,0 l/m 1,4 km/h (1 Bft) N-NO 22 0,2 C 1,2 C
26.02.2013 06:51 1,1 C 93 % 1031,8 hPa 0,0 l/m 2,2 km/h (1 Bft) N-NO 22 0,1 C 1,1 C
26.02.2013 06:56 1,2 C 93 % 1031,9 hPa 0,0 l/m 1,4 km/h (1 Bft) N-NO 22 0,2 C 1,2 C
26.02.2013 07:01 1,2 C 93 % 1031,8 hPa 0,0 l/m 0,0 km/h (0 Bft) N-NO 22 0,2 C 1,2 C
26.02.2013 07:06 1,2 C 93 % 1031,9 hPa 0,0 l/m 4,3 km/h (1 Bft) NO 45 0,2 C 1,2 C
26.02.2013 07:11 1,2 C 93 % 1032,0 hPa 0,0 l/m 4,0 km/h (1 Bft) O-NO 67 0,2 C 1,2 C
26.02.2013 07:16 1,2 C 93 % 1032,0 hPa 0,0 l/m 2,2 km/h (1 Bft) NO 45 0,2 C 1,2 C
26.02.2013 07:21 1,2 C 93 % 1031,9 hPa 0,0 l/m 2,5 km/h (1 Bft) O-NO 67 0,2 C 1,2 C
26.02.2013 07:26 1,2 C 93 % 1032,1 hPa 0,0 l/m 3,2 km/h (1 Bft) NO 45 0,2 C 1,2 C
26.02.2013 07:31 1,2 C 93 % 1032,1 hPa 0,0 l/m 6,5 km/h (2 Bft) O-NO 67 0,2 C -0,8 C
26.02.2013 07:36 1,2 C 93 % 1032,0 hPa 0,0 l/m 0,0 km/h (0 Bft) N 360 0,2 C 1,2 C
26.02.2013 07:41 1,2 C 93 % 1032,2 hPa 0,0 l/m 3,6 km/h (1 Bft) N-NO 22 0,2 C 1,2 C
26.02.2013 07:46 1,2 C 93 % 1032,3 hPa 0,0 l/m 4,7 km/h (1 Bft) N 360 0,2 C -0,1 C
26.02.2013 07:51 1,2 C 93 % 1032,2 hPa 0,0 l/m 4,7 km/h (1 Bft) N 360 0,2 C -0,1 C
26.02.2013 07:56 1,2 C 93 % 1032,4 hPa 0,0 l/m 3,6 km/h (1 Bft) NO 45 0,2 C 1,2 C
26.02.2013 08:01 1,2 C 93 % 1032,6 hPa 0,0 l/m 3,2 km/h (1 Bft) NO 45 0,2 C 1,2 C
26.02.2013 08:06 1,2 C 93 % 1032,4 hPa 0,0 l/m 4,0 km/h (1 Bft) O 90 0,2 C 1,2 C
26.02.2013 08:11 1,2 C 93 % 1032,6 hPa 0,0 l/m 3,6 km/h (1 Bft) NO 45 0,2 C 1,2 C
26.02.2013 08:16 1,2 C 93 % 1032,7 hPa 0,0 l/m 2,9 km/h (1 Bft) NO 45 0,2 C 1,2 C
26.02.2013 08:21 1,3 C 93 % 1032,6 hPa 0,0 l/m 4,7 km/h (1 Bft) N 360 0,3 C 0,0 C
26.02.2013 08:26 1,3 C 93 % 1032,7 hPa 0,0 l/m 2,5 km/h (1 Bft) O-NO 67 0,3 C 1,3 C
26.02.2013 08:31 1,3 C 93 % 1032,7 hPa 0,0 l/m 1,8 km/h (1 Bft) O-NO 67 0,3 C 1,3 C
26.02.2013 08:36 1,3 C 93 % 1032,9 hPa 0,0 l/m 4,7 km/h (1 Bft) O-NO 67 0,3 C 0,0 C
26.02.2013 08:41 1,3 C 93 % 1032,7 hPa 0,0 l/m 4,7 km/h (1 Bft) NO 45 0,3 C 0,0 C
26.02.2013 08:46 1,3 C 93 % 1032,8 hPa 0,0 l/m 5,8 km/h (2 Bft) O-NO 67 0,3 C -0,5 C
26.02.2013 08:51 1,3 C 92 % 1033,0 hPa 0,0 l/m 6,5 km/h (2 Bft) O-NO 67 0,1 C -0,7 C
26.02.2013 08:56 1,3 C 92 % 1032,9 hPa 0,0 l/m 4,0 km/h (1 Bft) O-NO 67 0,1 C 1,3 C
26.02.2013 09:01 1,3 C 92 % 1033,0 hPa 0,0 l/m 5,4 km/h (1 Bft) O-NO 67 0,1 C -0,3 C
26.02.2013 09:06 1,3 C 92 % 1033,1 hPa 0,0 l/m 5,8 km/h (2 Bft) NO 45 0,1 C -0,5 C
26.02.2013 09:11 1,3 C 92 % 1033,1 hPa 0,0 l/m 10,1 km/h (2 Bft) O-NO 67 0,1 C -1,8 C
26.02.2013 09:16 1,3 C 92 % 1033,1 hPa 0,0 l/m 2,9 km/h (1 Bft) NO 45 0,1 C 1,3 C
26.02.2013 09:21 1,3 C 92 % 1033,0 hPa 0,0 l/m 4,0 km/h (1 Bft) O 90 0,1 C 1,3 C
26.02.2013 09:26 1,2 C 92 % 1033,0 hPa 0,0 l/m 5,8 km/h (2 Bft) NO 45 0,0 C -0,6 C
26.02.2013 09:31 1,2 C 92 % 1033,1 hPa 0,0 l/m 2,9 km/h (1 Bft) O-NO 67 0,0 C 1,2 C
26.02.2013 09:36 1,1 C 92 % 1033,1 hPa 0,0 l/m 3,6 km/h (1 Bft) NO 45 -0,1 C 1,1 C
26.02.2013 09:41 1,1 C 92 % 1033,3 hPa 0,0 l/m 2,5 km/h (1 Bft) O-SO 112 -0,1 C 1,1 C
26.02.2013 09:46 1,1 C 92 % 1033,1 hPa 0,0 l/m 8,3 km/h (2 Bft) O-NO 67 -0,1 C -1,5 C
26.02.2013 09:51 1,1 C 92 % 1033,3 hPa 0,0 l/m 0,0 km/h (0 Bft) O-NO 67 -0,1 C 1,1 C
26.02.2013 09:56 1,1 C 92 % 1033,2 hPa 0,0 l/m 7,6 km/h (2 Bft) NO 45 -0,1 C -1,3 C
26.02.2013 10:01 1,0 C 92 % 1033,3 hPa 0,0 l/m 5,8 km/h (2 Bft) N 360 -0,2 C -0,8 C
26.02.2013 10:06 1,0 C 92 % 1033,3 hPa 0,0 l/m 3,2 km/h (1 Bft) O-SO 112 -0,2 C 1,0 C
26.02.2013 10:11 1,1 C 92 % 1033,3 hPa 0,0 l/m 2,5 km/h (1 Bft) O-NO 67 -0,1 C 1,1 C
26.02.2013 10:16 1,0 C 92 % 1033,3 hPa 0,0 l/m 8,3 km/h (2 Bft) NO 45 -0,2 C -1,7 C
26.02.2013 10:21 1,1 C 92 % 1033,3 hPa 0,0 l/m 2,2 km/h (1 Bft) NO 45 -0,1 C 1,1 C
26.02.2013 10:26 1,1 C 92 % 1033,4 hPa 0,0 l/m 10,1 km/h (2 Bft) NO 45 -0,1 C -2,0 C
26.02.2013 10:31 1,1 C 92 % 1033,4 hPa 0,0 l/m 6,1 km/h (2 Bft) O-NO 67 -0,1 C -0,8 C
26.02.2013 10:36 1,2 C 92 % 1033,5 hPa 0,0 l/m 7,6 km/h (2 Bft) NO 45 0,0 C -1,2 C
26.02.2013 10:41 1,1 C 92 % 1033,6 hPa 0,0 l/m 7,6 km/h (2 Bft) O-NO 67 -0,1 C -1,3 C
26.02.2013 10:46 1,1 C 92 % 1033,6 hPa 0,0 l/m 4,7 km/h (1 Bft) NO 45 -0,1 C -0,2 C
26.02.2013 10:51 1,2 C 92 % 1033,6 hPa 0,0 l/m 9,4 km/h (2 Bft) N 360 0,0 C -1,7 C
26.02.2013 10:56 1,2 C 92 % 1033,4 hPa 0,0 l/m 13,7 km/h (3 Bft) N-NO 22 0,0 C -2,7 C
26.02.2013 11:01 1,1 C 91 % 1033,6 hPa 0,0 l/m 16,6 km/h (3 Bft) O-NO 67 -0,2 C -3,3 C
26.02.2013 11:06 1,1 C 91 % 1033,6 hPa 0,0 l/m 8,6 km/h (2 Bft) NO 45 -0,2 C -1,6 C
26.02.2013 11:11 1,2 C 91 % 1033,6 hPa 0,0 l/m 5,0 km/h (1 Bft) NO 45 -0,1 C -0,2 C
26.02.2013 11:16 1,2 C 91 % 1033,6 hPa 0,0 l/m 7,6 km/h (2 Bft) N-NO 22 -0,1 C -1,2 C
26.02.2013 11:21 1,2 C 91 % 1033,6 hPa 0,0 l/m 10,8 km/h (2 Bft) O-NO 67 -0,1 C -2,1 C
26.02.2013 11:26 1,2 C 91 % 1033,8 hPa 0,0 l/m 7,2 km/h (2 Bft) NO 45 -0,1 C -1,1 C
26.02.2013 11:31 1,2 C 91 % 1033,8 hPa 0,0 l/m 7,2 km/h (2 Bft) N-NO 22 -0,1 C -1,1 C
26.02.2013 11:36 1,2 C 91 % 1033,7 hPa 0,0 l/m 4,0 km/h (1 Bft) NO 45 -0,1 C 1,2 C
26.02.2013 11:41 1,2 C 91 % 1033,7 hPa 0,0 l/m 5,4 km/h (1 Bft) NO 45 -0,1 C -0,4 C
26.02.2013 11:46 1,2 C 91 % 1033,7 hPa 0,0 l/m 4,7 km/h (1 Bft) N-NO 22 -0,1 C -0,1 C
26.02.2013 11:51 1,2 C 91 % 1033,6 hPa 0,0 l/m 10,1 km/h (2 Bft) O-NO 67 -0,1 C -1,9 C
26.02.2013 11:56 1,2 C 91 % 1033,6 hPa 0,0 l/m 8,6 km/h (2 Bft) NO 45 -0,1 C -1,5 C
26.02.2013 12:01 1,2 C 91 % 1033,7 hPa 0,0 l/m 13,3 km/h (3 Bft) NO 45 -0,1 C -2,6 C
26.02.2013 12:06 1,2 C 91 % 1033,6 hPa 0,0 l/m 4,3 km/h (1 Bft) O-NO 67 -0,1 C 1,2 C
26.02.2013 12:11 1,2 C 91 % 1033,6 hPa 0,0 l/m 7,6 km/h (2 Bft) O-NO 67 -0,1 C -1,2 C
26.02.2013 12:16 1,2 C 91 % 1033,5 hPa 0,0 l/m 6,8 km/h (2 Bft) O-NO 67 -0,1 C -0,9 C
26.02.2013 12:21 1,3 C 91 % 1033,4 hPa 0,0 l/m 9,7 km/h (2 Bft) N-NO 22 -0,0 C -1,7 C
26.02.2013 12:26 1,3 C 91 % 1033,6 hPa 0,0 l/m 7,2 km/h (2 Bft) NO 45 -0,0 C -1,0 C
26.02.2013 12:31 1,3 C 91 % 1033,5 hPa 0,0 l/m 3,2 km/h (1 Bft) NO 45 -0,0 C 1,3 C
26.02.2013 12:36 1,3 C 91 % 1033,5 hPa 0,0 l/m 5,0 km/h (1 Bft) O-SO 112 -0,0 C -0,1 C
26.02.2013 12:41 1,3 C 91 % 1033,3 hPa 0,0 l/m 9,0 km/h (2 Bft) O-NO 67 -0,0 C -1,5 C
26.02.2013 12:46 1,3 C 91 % 1033,4 hPa 0,0 l/m 11,5 km/h (2 Bft) O-NO 67 -0,0 C -2,1 C
26.02.2013 12:51 1,3 C 90 % 1033,2 hPa 0,0 l/m 4,7 km/h (1 Bft) O 90 -0,2 C 0,0 C
26.02.2013 12:56 1,3 C 90 % 1033,3 hPa 0,0 l/m 10,8 km/h (2 Bft) O-NO 67 -0,2 C -2,0 C
26.02.2013 13:01 1,3 C 90 % 1033,2 hPa 0,0 l/m 5,0 km/h (1 Bft) NO 45 -0,2 C -0,1 C
26.02.2013 13:06 1,3 C 90 % 1033,3 hPa 0,0 l/m 7,2 km/h (2 Bft) NO 45 -0,2 C -1,0 C
26.02.2013 13:11 1,3 C 90 % 1033,3 hPa 0,0 l/m 6,1 km/h (2 Bft) O-NO 67 -0,2 C -0,6 C
26.02.2013 13:16 1,3 C 90 % 1033,2 hPa 0,0 l/m 5,4 km/h (1 Bft) NO 45 -0,2 C -0,3 C
26.02.2013 13:21 1,3 C 90 % 1033,1 hPa 0,0 l/m 7,2 km/h (2 Bft) NO 45 -0,2 C -1,0 C
26.02.2013 13:26 1,3 C 90 % 1033,1 hPa 0,0 l/m 5,0 km/h (1 Bft) N-NO 22 -0,2 C -0,1 C
26.02.2013 13:31 1,3 C 90 % 1033,3 hPa 0,0 l/m 4,0 km/h (1 Bft) N-NO 22 -0,2 C 1,3 C
26.02.2013 13:36 1,3 C 90 % 1033,3 hPa 0,0 l/m 16,2 km/h (3 Bft) O-NO 67 -0,2 C -3,0 C
26.02.2013 13:41 1,3 C 90 % 1033,2 hPa 0,0 l/m 13,3 km/h (3 Bft) NO 45 -0,2 C -2,5 C
26.02.2013 13:46 1,3 C 90 % 1033,2 hPa 0,0 l/m 4,0 km/h (1 Bft) N-NO 22 -0,2 C 1,3 C
26.02.2013 13:51 1,3 C 90 % 1033,2 hPa 0,0 l/m 4,0 km/h (1 Bft) O-NO 67 -0,2 C 1,3 C
26.02.2013 13:56 1,3 C 90 % 1033,2 hPa 0,0 l/m 4,0 km/h (1 Bft) NO 45 -0,2 C 1,3 C
26.02.2013 14:01 1,4 C 90 % 1033,1 hPa 0,0 l/m 4,7 km/h (1 Bft) O 90 -0,1 C 0,1 C
26.02.2013 14:06 1,4 C 90 % 1033,1 hPa 0,0 l/m 8,6 km/h (2 Bft) NO 45 -0,1 C -1,3 C
26.02.2013 14:11 1,4 C 90 % 1033,1 hPa 0,0 l/m 4,0 km/h (1 Bft) O-NO 67 -0,1 C 1,4 C
26.02.2013 14:16 1,3 C 90 % 1033,1 hPa 0,0 l/m 4,7 km/h (1 Bft) O-NO 67 -0,2 C 0,0 C
26.02.2013 14:21 1,4 C 90 % 1033,1 hPa 0,0 l/m 8,6 km/h (2 Bft) O-NO 67 -0,1 C -1,3 C
26.02.2013 14:26 1,4 C 90 % 1033,1 hPa 0,0 l/m 2,2 km/h (1 Bft) O-NO 67 -0,1 C 1,4 C
26.02.2013 14:31 1,4 C 90 % 1033,1 hPa 0,0 l/m 9,4 km/h (2 Bft) O-NO 67 -0,1 C -1,5 C
26.02.2013 14:36 1,4 C 90 % 1033,0 hPa 0,0 l/m 12,2 km/h (2 Bft) O-NO 67 -0,1 C -2,1 C
26.02.2013 14:41 1,4 C 90 % 1033,0 hPa 0,0 l/m 7,6 km/h (2 Bft) NO 45 -0,1 C -1,0 C
26.02.2013 14:46 1,4 C 90 % 1033,1 hPa 0,0 l/m 5,4 km/h (1 Bft) O-NO 67 -0,1 C -0,2 C
26.02.2013 14:51 1,4 C 90 % 1033,1 hPa 0,0 l/m 7,6 km/h (2 Bft) O-NO 67 -0,1 C -1,0 C
26.02.2013 14:56 1,4 C 90 % 1033,0 hPa 0,0 l/m 5,0 km/h (1 Bft) O-NO 67 -0,1 C -0,0 C
26.02.2013 15:01 1,4 C 90 % 1033,0 hPa 0,0 l/m 2,5 km/h (1 Bft) NO 45 -0,1 C 1,4 C
26.02.2013 15:06 1,5 C 90 % 1033,0 hPa 0,0 l/m 3,6 km/h (1 Bft) NO 45 0,0 C 1,5 C
26.02.2013 15:11 1,4 C 90 % 1033,0 hPa 0,0 l/m 11,2 km/h (2 Bft) NO 45 -0,1 C -1,9 C
26.02.2013 15:16 1,5 C 90 % 1033,0 hPa 0,0 l/m 2,5 km/h (1 Bft) NO 45 0,0 C 1,5 C
26.02.2013 15:21 1,6 C 90 % 1032,9 hPa 0,0 l/m 5,0 km/h (1 Bft) O 90 0,1 C 0,2 C
26.02.2013 15:26 1,6 C 90 % 1032,9 hPa 0,0 l/m 5,0 km/h (1 Bft) O-NO 67 0,1 C 0,2 C
26.02.2013 15:31 1,5 C 90 % 1032,9 hPa 0,0 l/m 6,5 km/h (2 Bft) O-NO 67 0,0 C -0,5 C
26.02.2013 15:36 1,6 C 90 % 1032,9 hPa 0,0 l/m 4,3 km/h (1 Bft) O 90 0,1 C 1,6 C
26.02.2013 15:41 1,6 C 90 % 1032,8 hPa 0,0 l/m 14,8 km/h (3 Bft) NO 45 0,1 C -2,4 C
26.02.2013 15:46 1,5 C 90 % 1032,8 hPa 0,0 l/m 4,0 km/h (1 Bft) NO 45 0,0 C 1,5 C
26.02.2013 15:51 1,6 C 90 % 1032,8 hPa 0,0 l/m 4,0 km/h (1 Bft) O-NO 67 0,1 C 1,6 C
26.02.2013 15:56 1,6 C 90 % 1032,8 hPa 0,0 l/m 4,0 km/h (1 Bft) NO 45 0,1 C 1,6 C
26.02.2013 16:01 1,6 C 90 % 1032,7 hPa 0,0 l/m 3,2 km/h (1 Bft) O 90 0,1 C 1,6 C
26.02.2013 16:06 1,6 C 90 % 1032,7 hPa 0,0 l/m 3,2 km/h (1 Bft) NO 45 0,1 C 1,6 C
26.02.2013 16:11 1,6 C 90 % 1032,9 hPa 0,0 l/m 5,4 km/h (1 Bft) O-NO 67 0,1 C 0,1 C
26.02.2013 16:16 1,5 C 90 % 1032,9 hPa 0,0 l/m 6,5 km/h (2 Bft) NO 45 0,0 C -0,5 C
26.02.2013 16:21 1,5 C 90 % 1032,8 hPa 0,0 l/m 6,5 km/h (2 Bft) O-NO 67 0,0 C -0,5 C
26.02.2013 16:26 1,5 C 90 % 1032,8 hPa 0,0 l/m 7,2 km/h (2 Bft) NO 45 0,0 C -0,7 C
26.02.2013 16:31 1,5 C 90 % 1032,7 hPa 0,0 l/m 4,7 km/h (1 Bft) NO 45 0,0 C 0,2 C
26.02.2013 16:36 1,6 C 90 % 1032,7 hPa 0,0 l/m 0,0 km/h (0 Bft) O-NO 67 0,1 C 1,6 C
26.02.2013 16:41 1,6 C 90 % 1033,0 hPa 0,0 l/m 2,9 km/h (1 Bft) NO 45 0,1 C 1,6 C
26.02.2013 16:46 1,6 C 90 % 1033,1 hPa 0,0 l/m 5,0 km/h (1 Bft) O-NO 67 0,1 C 0,2 C
26.02.2013 16:51 1,6 C 90 % 1033,1 hPa 0,0 l/m 4,0 km/h (1 Bft) NO 45 0,1 C 1,6 C
26.02.2013 16:56 1,6 C 90 % 1033,1 hPa 0,0 l/m 5,0 km/h (1 Bft) O-NO 67 0,1 C 0,2 C
26.02.2013 17:01 1,6 C 90 % 1032,9 hPa 0,0 l/m 4,7 km/h (1 Bft) O-NO 67 0,1 C 0,4 C
26.02.2013 17:06 1,6 C 90 % 1032,8 hPa 0,0 l/m 7,9 km/h (2 Bft) NO 45 0,1 C -0,8 C
26.02.2013 17:11 1,5 C 90 % 1032,9 hPa 0,0 l/m 7,6 km/h (2 Bft) O-NO 67 0,0 C -0,9 C
26.02.2013 17:16 1,6 C 90 % 1033,1 hPa 0,0 l/m 7,2 km/h (2 Bft) NO 45 0,1 C -0,6 C
26.02.2013 17:21 1,5 C 90 % 1033,2 hPa 0,0 l/m 2,5 km/h (1 Bft) NO 45 0,0 C 1,5 C
26.02.2013 17:26 1,5 C 90 % 1033,2 hPa 0,0 l/m 6,5 km/h (2 Bft) NO 45 0,0 C -0,5 C
26.02.2013 17:31 1,4 C 90 % 1033,1 hPa 0,0 l/m 9,7 km/h (2 Bft) O 90 -0,1 C -1,6 C
26.02.2013 17:36 1,4 C 90 % 1033,2 hPa 0,0 l/m 10,4 km/h (2 Bft) O-NO 67 -0,1 C -1,7 C
26.02.2013 17:41 1,4 C 90 % 1033,2 hPa 0,0 l/m 10,1 km/h (2 Bft) O-NO 67 -0,1 C -1,7 C
26.02.2013 17:46 1,4 C 90 % 1033,2 hPa 0,0 l/m 6,1 km/h (2 Bft) O-NO 67 -0,1 C -0,5 C
26.02.2013 17:51 1,3 C 90 % 1033,3 hPa 0,0 l/m 13,0 km/h (3 Bft) O-NO 67 -0,2 C -2,4 C
26.02.2013 17:56 1,3 C 90 % 1033,3 hPa 0,0 l/m 5,0 km/h (1 Bft) O-NO 67 -0,2 C -0,1 C
26.02.2013 18:01 1,3 C 90 % 1033,3 hPa 0,0 l/m 11,2 km/h (2 Bft) NO 45 -0,2 C -2,0 C
26.02.2013 18:06 1,3 C 90 % 1033,3 hPa 0,0 l/m 19,1 km/h (3 Bft) O-NO 67 -0,2 C -3,5 C
26.02.2013 18:11 1,3 C 90 % 1033,4 hPa 0,0 l/m 5,4 km/h (1 Bft) O-NO 67 -0,2 C -0,3 C
26.02.2013 18:16 1,3 C 90 % 1033,5 hPa 0,0 l/m 13,0 km/h (3 Bft) O-NO 67 -0,2 C -2,4 C
26.02.2013 18:21 1,3 C 90 % 1033,6 hPa 0,0 l/m 13,3 km/h (3 Bft) NO 45 -0,2 C -2,5 C
26.02.2013 18:26 1,3 C 90 % 1033,7 hPa 0,0 l/m 13,0 km/h (3 Bft) O-NO 67 -0,2 C -2,4 C
26.02.2013 18:31 1,3 C 90 % 1033,6 hPa 0,0 l/m 10,1 km/h (2 Bft) O-NO 67 -0,2 C -1,8 C
26.02.2013 18:36 1,3 C 90 % 1033,6 hPa 0,0 l/m 11,2 km/h (2 Bft) O-NO 67 -0,2 C -2,0 C
26.02.2013 18:41 1,3 C 90 % 1033,4 hPa 0,0 l/m 8,6 km/h (2 Bft) NO 45 -0,2 C -1,4 C
26.02.2013 18:46 1,3 C 90 % 1033,5 hPa 0,0 l/m 5,8 km/h (2 Bft) O-NO 67 -0,2 C -0,5 C
26.02.2013 18:51 1,3 C 90 % 1033,4 hPa 0,0 l/m 13,0 km/h (3 Bft) O-NO 67 -0,2 C -2,4 C
26.02.2013 18:56 1,3 C 90 % 1033,4 hPa 0,0 l/m 7,6 km/h (2 Bft) O-NO 67 -0,2 C -1,1 C
26.02.2013 19:01 1,3 C 90 % 1033,5 hPa 0,0 l/m 5,8 km/h (2 Bft) O-NO 67 -0,2 C -0,5 C
26.02.2013 19:06 1,3 C 90 % 1033,5 hPa 0,0 l/m 9,0 km/h (2 Bft) O-NO 67 -0,2 C -1,5 C
26.02.2013 19:11 1,3 C 90 % 1033,7 hPa 0,0 l/m 5,0 km/h (1 Bft) O-NO 67 -0,2 C -0,1 C
26.02.2013 19:16 1,3 C 90 % 1033,6 hPa 0,0 l/m 6,5 km/h (2 Bft) O-NO 67 -0,2 C -0,7 C
26.02.2013 19:21 1,3 C 90 % 1033,6 hPa 0,0 l/m 5,0 km/h (1 Bft) NO 45 -0,2 C -0,1 C
26.02.2013 19:26 1,3 C 90 % 1033,7 hPa 0,0 l/m 6,1 km/h (2 Bft) O 90 -0,2 C -0,6 C
26.02.2013 19:31 1,3 C 90 % 1033,7 hPa 0,0 l/m 2,9 km/h (1 Bft) NO 45 -0,2 C 1,3 C
26.02.2013 19:36 1,3 C 90 % 1033,7 hPa 0,0 l/m 9,4 km/h (2 Bft) O-NO 67 -0,2 C -1,6 C
26.02.2013 19:41 1,3 C 90 % 1033,7 hPa 0,0 l/m 6,1 km/h (2 Bft) O 90 -0,2 C -0,6 C
26.02.2013 19:46 1,3 C 90 % 1033,8 hPa 0,0 l/m 6,1 km/h (2 Bft) NO 45 -0,2 C -0,6 C
26.02.2013 19:51 1,3 C 90 % 1033,8 hPa 0,0 l/m 7,2 km/h (2 Bft) NO 45 -0,2 C -1,0 C
26.02.2013 19:56 1,3 C 90 % 1033,7 hPa 0,0 l/m 4,7 km/h (1 Bft) O-SO 112 -0,2 C 0,0 C
26.02.2013 20:01 1,3 C 90 % 1033,8 hPa 0,0 l/m 4,0 km/h (1 Bft) O-NO 67 -0,2 C 1,3 C
26.02.2013 20:06 1,3 C 90 % 1033,6 hPa 0,0 l/m 5,0 km/h (1 Bft) NO 45 -0,2 C -0,1 C
26.02.2013 20:11 1,2 C 90 % 1033,7 hPa 0,0 l/m 4,3 km/h (1 Bft) O-NO 67 -0,3 C 1,2 C
26.02.2013 20:16 1,2 C 90 % 1033,7 hPa 0,0 l/m 2,9 km/h (1 Bft) O-NO 67 -0,3 C 1,2 C
26.02.2013 20:21 1,2 C 90 % 1033,7 hPa 0,0 l/m 7,2 km/h (2 Bft) NO 45 -0,3 C -1,1 C
26.02.2013 20:26 1,2 C 90 % 1033,7 hPa 0,0 l/m 2,5 km/h (1 Bft) N-NO 22 -0,3 C 1,2 C
26.02.2013 20:31 1,2 C 90 % 1033,8 hPa 0,0 l/m 9,7 km/h (2 Bft) O-NO 67 -0,3 C -1,8 C
26.02.2013 20:36 1,2 C 90 % 1033,7 hPa 0,0 l/m 9,4 km/h (2 Bft) NO 45 -0,3 C -1,7 C
26.02.2013 20:41 1,2 C 90 % 1033,7 hPa 0,0 l/m 5,8 km/h (2 Bft) O-NO 67 -0,3 C -0,6 C
26.02.2013 20:46 1,2 C 90 % 1033,7 hPa 0,0 l/m 7,6 km/h (2 Bft) NO 45 -0,3 C -1,2 C
26.02.2013 20:51 1,2 C 90 % 1033,8 hPa 0,0 l/m 4,7 km/h (1 Bft) NO 45 -0,3 C -0,1 C
26.02.2013 20:56 1,2 C 90 % 1034,0 hPa 0,0 l/m 7,2 km/h (2 Bft) NO 45 -0,3 C -1,1 C
26.02.2013 21:01 1,1 C 90 % 1034,1 hPa 0,0 l/m 5,4 km/h (1 Bft) O-NO 67 -0,4 C -0,5 C
26.02.2013 21:06 1,1 C 90 % 1034,0 hPa 0,0 l/m 5,8 km/h (2 Bft) O-NO 67 -0,4 C -0,7 C
26.02.2013 21:11 1,2 C 90 % 1034,1 hPa 0,0 l/m 2,5 km/h (1 Bft) NO 45 -0,3 C 1,2 C
26.02.2013 21:16 1,1 C 90 % 1034,2 hPa 0,0 l/m 8,3 km/h (2 Bft) O-NO 67 -0,4 C -1,5 C
26.02.2013 21:21 1,1 C 90 % 1034,3 hPa 0,0 l/m 3,6 km/h (1 Bft) NO 45 -0,4 C 1,1 C
26.02.2013 21:26 1,1 C 90 % 1034,3 hPa 0,0 l/m 9,7 km/h (2 Bft) O-NO 67 -0,4 C -1,9 C
26.02.2013 21:31 1,1 C 90 % 1034,3 hPa 0,0 l/m 10,1 km/h (2 Bft) NO 45 -0,4 C -2,0 C
26.02.2013 21:36 1,1 C 90 % 1034,1 hPa 0,0 l/m 14,0 km/h (3 Bft) O-NO 67 -0,4 C -2,9 C
26.02.2013 21:41 1,1 C 90 % 1034,2 hPa 0,0 l/m 5,0 km/h (1 Bft) O-NO 67 -0,4 C -0,3 C
26.02.2013 21:46 1,1 C 90 % 1034,3 hPa 0,0 l/m 1,1 km/h (1 Bft) NO 45 -0,4 C 1,1 C
26.02.2013 21:51 1,1 C 90 % 1034,3 hPa 0,0 l/m 2,5 km/h (1 Bft) O-NO 67 -0,4 C 1,1 C
26.02.2013 21:56 1,1 C 90 % 1034,3 hPa 0,0 l/m 10,1 km/h (2 Bft) NO 45 -0,4 C -2,0 C
26.02.2013 22:01 1,1 C 90 % 1034,2 hPa 0,0 l/m 4,7 km/h (1 Bft) O-NO 67 -0,4 C -0,2 C
26.02.2013 22:06 1,1 C 90 % 1034,2 hPa 0,0 l/m 3,2 km/h (1 Bft) N-NO 22 -0,4 C 1,1 C
26.02.2013 22:11 1,1 C 90 % 1034,2 hPa 0,0 l/m 12,2 km/h (2 Bft) O-NO 67 -0,4 C -2,5 C
26.02.2013 22:16 1,1 C 90 % 1034,3 hPa 0,0 l/m 5,4 km/h (1 Bft) NO 45 -0,4 C -0,5 C
26.02.2013 22:21 1,1 C 90 % 1034,3 hPa 0,0 l/m 7,6 km/h (2 Bft) O-NO 67 -0,4 C -1,3 C
26.02.2013 22:26 1,1 C 90 % 1034,3 hPa 0,0 l/m 1,8 km/h (1 Bft) NO 45 -0,4 C 1,1 C
26.02.2013 22:31 1,1 C 90 % 1034,3 hPa 0,0 l/m 6,1 km/h (2 Bft) NO 45 -0,4 C -0,8 C
26.02.2013 22:36 1,1 C 90 % 1034,2 hPa 0,0 l/m 4,3 km/h (1 Bft) NO 45 -0,4 C 1,1 C
26.02.2013 22:41 1,1 C 90 % 1034,2 hPa 0,0 l/m 7,2 km/h (2 Bft) NO 45 -0,4 C -1,2 C
26.02.2013 22:46 1,1 C 90 % 1034,3 hPa 0,0 l/m 3,6 km/h (1 Bft) O-NO 67 -0,4 C 1,1 C
26.02.2013 22:51 1,1 C 90 % 1034,4 hPa 0,0 l/m 2,5 km/h (1 Bft) O-NO 67 -0,4 C 1,1 C
26.02.2013 22:56 1,1 C 90 % 1034,3 hPa 0,0 l/m 0,0 km/h (0 Bft) O-NO 67 -0,4 C 1,1 C
26.02.2013 23:01 1,0 C 90 % 1034,4 hPa 0,0 l/m 0,0 km/h (0 Bft) O-NO 67 -0,5 C 1,0 C
26.02.2013 23:06 1,0 C 90 % 1034,4 hPa 0,0 l/m 3,6 km/h (1 Bft) O-NO 67 -0,5 C 1,0 C
26.02.2013 23:11 1,1 C 90 % 1034,2 hPa 0,0 l/m 8,3 km/h (2 Bft) NO 45 -0,4 C -1,5 C
26.02.2013 23:16 1,1 C 90 % 1034,3 hPa 0,0 l/m 0,0 km/h (0 Bft) O-NO 67 -0,4 C 1,1 C
26.02.2013 23:21 1,0 C 91 % 1034,3 hPa 0,0 l/m 6,5 km/h (2 Bft) NO 45 -0,3 C -1,1 C
26.02.2013 23:26 1,0 C 91 % 1034,4 hPa 0,0 l/m 3,2 km/h (1 Bft) O-SO 112 -0,3 C 1,0 C
26.02.2013 23:31 1,0 C 91 % 1034,3 hPa 0,0 l/m 1,4 km/h (1 Bft) O-NO 67 -0,3 C 1,0 C
26.02.2013 23:36 1,0 C 91 % 1034,4 hPa 0,0 l/m 3,2 km/h (1 Bft) NO 45 -0,3 C 1,0 C
26.02.2013 23:41 1,0 C 91 % 1034,4 hPa 0,0 l/m 3,6 km/h (1 Bft) NO 45 -0,3 C 1,0 C
26.02.2013 23:46 1,0 C 91 % 1034,4 hPa 0,0 l/m 5,8 km/h (2 Bft) NO 45 -0,3 C -0,8 C
26.02.2013 23:51 1,0 C 91 % 1034,2 hPa 0,0 l/m 4,3 km/h (1 Bft) NO 45 -0,3 C 1,0 C
26.02.2013 23:56 0,9 C 91 % 1034,4 hPa 0,0 l/m 3,2 km/h (1 Bft) NO 45 -0,4 C 0,9 C
_ Min-Zeit 23:56 12:51 00:01 - 04:06 - - 23:01 18:06
Minimum _ 0,9 C 90 % 1029,5 hPa - 0,0 km/h (0 Bft) - - -0,5 C -3,5 C
_ Max-Zeit 15:21 01:26 22:51 00:01 18:06 - - 01:26 15:36
Maximum _ 1,6 C 93 % 1034,4 hPa 0,0 l/m 19,1 km/h
O-NO (3 Bft)
- - 0,3 C 1,6 C
Durchschnitt _ 1,3 C 91 % 1032,6 hPa #0,0 l/m 5,4 km/h (1 Bft) NO - -0,0 C 0,0 C
(c) by David Heller